User: anonymous   Login
Location: ?????
(54.9266°N, 38.5527°E)
Time: 21:16:41
(UTC+00:00)
Language:

Cosmos 1092 Rocket - Orbit

View from above orbital plane
View from above orbital plane
View from above satellite
View from above satellite

Ground track
Ground track

The orbit data is extracted from the following two-line orbital elements,

1 11327U 79030B   24170.58364168  .00000014  00000-0 -84498-6 0  9993
2 11327  82.9498 196.2617 0026801 215.0798 258.5163 13.77079342271000
Epoch (UTC): 18 June 2024 14:00:26
Eccentricity: 0.0026801
inclination: 82.9498°
perigee height: 954 km
apogee height: 994 km
right ascension of ascending node: 196.2617°
argument of perigee: 215.0798°
revolutions per day: 13.77079342
mean anomaly at epoch: 258.5163°
orbit number at epoch: 27100

The dashed part of the orbit path shows where the satellite is in the earth's shadow,  

DLR